Location: Ellingshausen
(50.5460°N, 10.4723°E)
Time: 06:19:44
(UTC+00:00)

SOZ - Pass Details

Date: 18 January 2026
Orbit: 327 x 16064 km, 51.9° (Epoch: 18 February)

Event Time Altitude Azimuth Distance (km) Brightness Sun altitude
Exits shadow 04:57:55 58° 45° (NE) 455 4.5 -20.5°
Drops below altitude 10° 05:01:07 10° 87° (E) 1,946 8.8 -20.0°
Sets 05:04:36 0° 91° (E) 3,725 10.6 -19.4°
